SWR65 LSZH-KMIA

Flight info

Callsign SWR65
Flight time N/A
Altitude 32000
Route DEGES Z1 ETAGO DCT LIRSU/N0477F340 L608 DENUT L610 KOPUL Q63 ICTAM M197 ENHAQ DCT GAJIT DCT BAPHU DCT LESLU/M083F340 DCT EPUNA DCT RODEL/M083F350 DCT 51N020W 51N030W 5030N04000W 48N050W DCT NICSO/M082F360 DCT LOMPI M202 KINER/M082F380 M202 ONGOT DCT PADRK M203 SNAGY/N0473F380 BNFSH3
Aircraft B77W/H-SDE1E2E3FGHIJ2J3J4J5M1RWXY/LB1D1

Departure

Time N/A
Airport Zürich Airport (LSZH)

Arrival

Time 2026-05-06 12:38
Airport Miami International Airport (KMIA)
Time Latitude Longitude Altitude Speed Heading
2026-05-06 11:47 29.42437 -77.18495 38108 ft 463 kts 246°
2026-05-06 11:47 29.40674 -77.21575 38108 ft 464 kts 246°
2026-05-06 11:48 29.37127 -77.27769 38099 ft 463 kts 246°
2026-05-06 11:48 29.33590 -77.33943 38100 ft 463 kts 246°
2026-05-06 11:49 29.30051 -77.40111 38103 ft 463 kts 246°
2026-05-06 11:49 29.26511 -77.46272 38103 ft 463 kts 246°
2026-05-06 11:50 29.22972 -77.52422 38083 ft 462 kts 245°
2026-05-06 11:50 29.19433 -77.58564 38099 ft 462 kts 245°
2026-05-06 11:51 29.15892 -77.64701 38104 ft 462 kts 245°
2026-05-06 11:51 29.12351 -77.70823 37981 ft 459 kts 245°
2026-05-06 11:52 29.10592 -77.73852 37481 ft 455 kts 245°
2026-05-06 11:52 29.08844 -77.76858 36858 ft 453 kts 245°
2026-05-06 11:52 29.07108 -77.79848 36263 ft 451 kts 245°
2026-05-06 11:52 29.05724 -77.82584 35434 ft 457 kts 250°
2026-05-06 11:53 29.04135 -77.85702 34738 ft 465 kts 245°
2026-05-06 11:53 29.02287 -77.88805 34354 ft 459 kts 243°
2026-05-06 11:53 29.00452 -77.91737 34160 ft 448 kts 242°
2026-05-06 11:53 28.98660 -77.94607 33905 ft 441 kts 243°
2026-05-06 11:54 28.96902 -77.97490 33704 ft 443 kts 243°
2026-05-06 11:54 28.95166 -78.00394 33497 ft 441 kts 243°
2026-05-06 11:54 28.93458 -78.03287 33282 ft 436 kts 244°
2026-05-06 11:54 28.91776 -78.06157 33069 ft 434 kts 244°
2026-05-06 11:55 28.90128 -78.08980 32872 ft 433 kts 244°
2026-05-06 11:55 28.88461 -78.11839 32678 ft 433 kts 244°
2026-05-06 11:55 28.86797 -78.14690 32474 ft 431 kts 244°
2026-05-06 11:55 28.85135 -78.17534 32280 ft 430 kts 244°
2026-05-06 11:56 28.83478 -78.20365 32077 ft 429 kts 243°
2026-05-06 11:56 28.81818 -78.23198 31884 ft 429 kts 243°
2026-05-06 11:56 28.80171 -78.26007 31688 ft 427 kts 243°
2026-05-06 11:56 28.78522 -78.28815 31506 ft 425 kts 243°
2026-05-06 11:57 28.77410 -78.30707 31368 ft 425 kts 243°
2026-05-06 11:57 28.75786 -78.33471 31187 ft 424 kts 243°
2026-05-06 11:57 28.74145 -78.36262 30971 ft 424 kts 243°
2026-05-06 11:57 28.72505 -78.39050 30783 ft 423 kts 243°
2026-05-06 11:58 28.70868 -78.41828 30364 ft 421 kts 243°
2026-05-06 11:58 28.69242 -78.44587 29893 ft 418 kts 243°
2026-05-06 11:58 28.67626 -78.47325 29399 ft 415 kts 243°
2026-05-06 11:58 28.66023 -78.50040 28923 ft 412 kts 243°
2026-05-06 11:59 28.64432 -78.52734 28452 ft 409 kts 242°
2026-05-06 11:59 28.62850 -78.55411 27989 ft 406 kts 242°
2026-05-06 11:59 28.61282 -78.58065 27506 ft 404 kts 242°
2026-05-06 11:59 28.59716 -78.60713 27063 ft 401 kts 242°
2026-05-06 12:00 28.58162 -78.63339 26627 ft 399 kts 242°
2026-05-06 12:00 28.56616 -78.65948 26185 ft 397 kts 242°
2026-05-06 12:00 28.55077 -78.68546 25747 ft 394 kts 242°
2026-05-06 12:00 28.53547 -78.71129 25310 ft 393 kts 242°
2026-05-06 12:01 28.52021 -78.73702 24873 ft 392 kts 242°
2026-05-06 12:01 28.50499 -78.76266 24453 ft 391 kts 241°
2026-05-06 12:01 28.48985 -78.78816 24174 ft 389 kts 241°
2026-05-06 12:01 28.47467 -78.81372 24110 ft 390 kts 241°
2026-05-06 12:02 28.45948 -78.83925 24107 ft 388 kts 241°
2026-05-06 12:02 28.44438 -78.86463 24094 ft 387 kts 241°
2026-05-06 12:02 28.42928 -78.88998 24099 ft 387 kts 241°
2026-05-06 12:02 28.41419 -78.91533 24100 ft 388 kts 241°
2026-05-06 12:03 28.39906 -78.94072 24094 ft 389 kts 241°
2026-05-06 12:03 28.38390 -78.96615 24093 ft 389 kts 241°
2026-05-06 12:03 28.36890 -78.99128 24098 ft 389 kts 241°
2026-05-06 12:03 28.35347 -79.01648 24074 ft 388 kts 236°
2026-05-06 12:04 28.33317 -79.03717 24107 ft 399 kts 216°
2026-05-06 12:04 28.30745 -79.04981 24102 ft 405 kts 202°
2026-05-06 12:04 28.28051 -79.05958 24098 ft 408 kts 202°
2026-05-06 12:04 28.25334 -79.06933 24097 ft 411 kts 202°
2026-05-06 12:05 28.22601 -79.07916 24102 ft 414 kts 202°
2026-05-06 12:05 28.19848 -79.08916 24093 ft 416 kts 202°
2026-05-06 12:05 28.17090 -79.09927 24100 ft 418 kts 202°
2026-05-06 12:05 28.14316 -79.10950 24101 ft 419 kts 202°
2026-05-06 12:06 28.11546 -79.11976 24102 ft 419 kts 202°
2026-05-06 12:06 28.08772 -79.13006 24093 ft 419 kts 202°
2026-05-06 12:06 28.06008 -79.14033 24089 ft 418 kts 202°
2026-05-06 12:06 28.03292 -79.15043 24087 ft 416 kts 202°
2026-05-06 12:07 28.00500 -79.16079 24086 ft 415 kts 202°
2026-05-06 12:07 27.97760 -79.17097 24084 ft 414 kts 202°
2026-05-06 12:07 27.95024 -79.18113 24083 ft 413 kts 202°
2026-05-06 12:07 27.92338 -79.19109 24079 ft 412 kts 202°
2026-05-06 12:08 27.89616 -79.20119 24082 ft 411 kts 202°
2026-05-06 12:08 27.86868 -79.21137 24085 ft 410 kts 202°
2026-05-06 12:08 27.84189 -79.22130 24091 ft 410 kts 202°
2026-05-06 12:08 27.81475 -79.23135 24095 ft 411 kts 202°
2026-05-06 12:09 27.78755 -79.24142 24096 ft 411 kts 202°
2026-05-06 12:09 27.76030 -79.25150 24094 ft 412 kts 202°
2026-05-06 12:09 27.73302 -79.26159 24102 ft 413 kts 202°
2026-05-06 12:09 27.70570 -79.27168 24091 ft 414 kts 202°
2026-05-06 12:10 27.67827 -79.28181 24089 ft 415 kts 202°
2026-05-06 12:10 27.65086 -79.29192 24095 ft 415 kts 202°
2026-05-06 12:10 27.62340 -79.30205 24085 ft 415 kts 202°
2026-05-06 12:10 27.59595 -79.31216 24092 ft 415 kts 202°
2026-05-06 12:11 27.56850 -79.32228 24092 ft 415 kts 202°
2026-05-06 12:11 27.54102 -79.33239 24093 ft 415 kts 202°
2026-05-06 12:11 27.51357 -79.34250 24092 ft 415 kts 202°
2026-05-06 12:11 27.48609 -79.35260 24093 ft 415 kts 202°
2026-05-06 12:12 27.45869 -79.36267 24092 ft 415 kts 202°
2026-05-06 12:12 27.43125 -79.37276 24091 ft 414 kts 202°
2026-05-06 12:12 27.40422 -79.38270 24089 ft 414 kts 202°
2026-05-06 12:12 27.37678 -79.39277 24090 ft 414 kts 202°
2026-05-06 12:13 27.34960 -79.40320 24088 ft 412 kts 204°
2026-05-06 12:13 27.32289 -79.41457 24080 ft 411 kts 206°
2026-05-06 12:13 27.29644 -79.42684 24081 ft 410 kts 208°
2026-05-06 12:13 27.27024 -79.43960 24020 ft 409 kts 205°
2026-05-06 12:14 27.24288 -79.44870 24091 ft 412 kts 198°
2026-05-06 12:14 27.21491 -79.45601 24089 ft 413 kts 198°
2026-05-06 12:14 27.18699 -79.46382 24096 ft 413 kts 199°
2026-05-06 12:14 27.15936 -79.47265 24099 ft 413 kts 201°
2026-05-06 12:15 27.13195 -79.48225 24071 ft 411 kts 202°
2026-05-06 12:15 27.10484 -79.49215 23898 ft 409 kts 203°
2026-05-06 12:15 27.07781 -79.50211 23624 ft 409 kts 202°
2026-05-06 12:15 27.05073 -79.51204 23312 ft 409 kts 202°
2026-05-06 12:16 27.02367 -79.52192 23050 ft 408 kts 202°
2026-05-06 12:16 26.99669 -79.53175 22773 ft 408 kts 202°
2026-05-06 12:16 26.96964 -79.54160 22402 ft 410 kts 202°
2026-05-06 12:16 26.94238 -79.55154 21990 ft 413 kts 202°
2026-05-06 12:17 26.91498 -79.56151 21615 ft 415 kts 202°
2026-05-06 12:17 26.88749 -79.57150 21335 ft 415 kts 202°
2026-05-06 12:17 26.86012 -79.58139 21111 ft 412 kts 202°
2026-05-06 12:17 26.83296 -79.59117 20801 ft 408 kts 202°
2026-05-06 12:18 26.80600 -79.60087 20391 ft 405 kts 202°
2026-05-06 12:18 26.77924 -79.61051 19947 ft 403 kts 201°
2026-05-06 12:18 26.75297 -79.61997 19516 ft 401 kts 201°
2026-05-06 12:18 26.72664 -79.62946 19098 ft 398 kts 201°
2026-05-06 12:19 26.70023 -79.63898 18699 ft 396 kts 201°
2026-05-06 12:19 26.67407 -79.64840 18288 ft 393 kts 201°
2026-05-06 12:19 26.64818 -79.65771 17845 ft 391 kts 201°
2026-05-06 12:19 26.62233 -79.66699 17421 ft 387 kts 201°
2026-05-06 12:20 26.59674 -79.67603 17017 ft 384 kts 200°
2026-05-06 12:20 26.57133 -79.68489 16613 ft 381 kts 200°
2026-05-06 12:20 26.54609 -79.69369 16203 ft 378 kts 200°
2026-05-06 12:20 26.52104 -79.70245 16008 ft 379 kts 200°
2026-05-06 12:21 26.49584 -79.71127 15989 ft 380 kts 200°
2026-05-06 12:21 26.47083 -79.72025 15973 ft 373 kts 204°
2026-05-06 12:21 26.44872 -79.73471 15985 ft 367 kts 226°
2026-05-06 12:21 26.43172 -79.75539 15944 ft 357 kts 233°
2026-05-06 12:22 26.41543 -79.77604 15741 ft 352 kts 232°
2026-05-06 12:22 26.39907 -79.79611 15522 ft 345 kts 231°
2026-05-06 12:22 26.38310 -79.81563 15325 ft 336 kts 233°
2026-05-06 12:22 26.36925 -79.83604 15143 ft 325 kts 240°
2026-05-06 12:23 26.35685 -79.85684 14898 ft 319 kts 241°
2026-05-06 12:23 26.34450 -79.87736 14583 ft 318 kts 240°
2026-05-06 12:23 26.33200 -79.89768 14246 ft 317 kts 239°
2026-05-06 12:23 26.31944 -79.91787 13932 ft 316 kts 239°
2026-05-06 12:24 26.30693 -79.93789 13599 ft 314 kts 239°
2026-05-06 12:24 26.29445 -79.95781 13293 ft 313 kts 239°
2026-05-06 12:24 26.28199 -79.97768 12930 ft 312 kts 239°
2026-05-06 12:24 26.26973 -79.99722 12567 ft 312 kts 239°
2026-05-06 12:25 26.25592 -80.01559 12093 ft 313 kts 221°
2026-05-06 12:25 26.23625 -80.02651 11607 ft 320 kts 196°
2026-05-06 12:25 26.21455 -80.03151 11221 ft 319 kts 192°
2026-05-06 12:25 26.19288 -80.03620 11004 ft 315 kts 192°
2026-05-06 12:26 26.17130 -80.04093 11007 ft 317 kts 193°
2026-05-06 12:26 26.14965 -80.04574 11005 ft 318 kts 193°
2026-05-06 12:26 26.12798 -80.05063 10991 ft 317 kts 193°
2026-05-06 12:26 26.10635 -80.05554 10992 ft 317 kts 193°
2026-05-06 12:27 26.08479 -80.06045 10987 ft 316 kts 193°
2026-05-06 12:27 26.06326 -80.06543 10985 ft 316 kts 194°
2026-05-06 12:27 26.04189 -80.07091 10986 ft 315 kts 195°
2026-05-06 12:27 26.02059 -80.07654 10987 ft 315 kts 195°
2026-05-06 12:28 25.99929 -80.08215 10995 ft 314 kts 195°
2026-05-06 12:28 25.97798 -80.08772 10996 ft 314 kts 195°
2026-05-06 12:28 25.95702 -80.09317 10834 ft 313 kts 195°
2026-05-06 12:28 25.93588 -80.09875 10520 ft 309 kts 198°
2026-05-06 12:29 25.91689 -80.10925 10024 ft 306 kts 224°
2026-05-06 12:29 25.90256 -80.12627 9605 ft 301 kts 231°
2026-05-06 12:29 25.88882 -80.14373 9243 ft 296 kts 234°
2026-05-06 12:29 25.87978 -80.16379 8770 ft 290 kts 261°
2026-05-06 12:30 25.87827 -80.18581 8367 ft 285 kts 271°
2026-05-06 12:30 25.87792 -80.20787 8005 ft 285 kts 270°
2026-05-06 12:30 25.87732 -80.22981 7705 ft 284 kts 270°
2026-05-06 12:30 25.87664 -80.25161 7410 ft 282 kts 269°
2026-05-06 12:31 25.87596 -80.27330 7100 ft 281 kts 269°
2026-05-06 12:31 25.87755 -80.29448 6655 ft 276 kts 290°
2026-05-06 12:31 25.88631 -80.31330 6256 ft 276 kts 301°
2026-05-06 12:31 25.89584 -80.33192 5922 ft 277 kts 299°
2026-05-06 12:32 25.90494 -80.35067 5646 ft 275 kts 298°
2026-05-06 12:32 25.91396 -80.36928 5359 ft 273 kts 298°
2026-05-06 12:32 25.92299 -80.38787 5024 ft 273 kts 298°
2026-05-06 12:32 25.93202 -80.40645 4692 ft 272 kts 298°
2026-05-06 12:33 25.93800 -80.42602 4226 ft 269 kts 272°
2026-05-06 12:33 25.93681 -80.44659 4077 ft 270 kts 258°
2026-05-06 12:33 25.92950 -80.46582 4010 ft 270 kts 242°
2026-05-06 12:33 25.92407 -80.48546 4000 ft 272 kts 265°
2026-05-06 12:34 25.92350 -80.50663 4016 ft 277 kts 271°
2026-05-06 12:34 25.92207 -80.52750 3989 ft 271 kts 252°
2026-05-06 12:34 25.91249 -80.54525 3997 ft 271 kts 222°
2026-05-06 12:34 25.89630 -80.55554 3999 ft 270 kts 193°
2026-05-06 12:35 25.87764 -80.55606 3826 ft 272 kts 165°
2026-05-06 12:35 25.86125 -80.54650 3720 ft 265 kts 135°
2026-05-06 12:35 25.85167 -80.52960 3717 ft 260 kts 105°
2026-05-06 12:35 25.85107 -80.50962 3722 ft 263 kts 76°
2026-05-06 12:36 25.85958 -80.49175 3728 ft 266 kts 46°
2026-05-06 12:36 25.87319 -80.47803 3723 ft 263 kts 49°
2026-05-06 12:36 25.88151 -80.45997 3726 ft 269 kts 79°
2026-05-06 12:36 25.88069 -80.43937 3725 ft 268 kts 108°
2026-05-06 12:37 25.87116 -80.42246 3709 ft 253 kts 137°
2026-05-06 12:37 25.85891 -80.41065 3663 ft 214 kts 134°
2026-05-06 12:37 25.84994 -80.39850 3778 ft 197 kts 125°
2026-05-06 12:37 25.84222 -80.38617 3803 ft 0 kts 122°
2026-05-06 12:38 25.83874 -80.37963 2157 ft 185 kts 120°
2026-05-06 12:38 25.83304 -80.36848 2176 ft 187 kts 119°
2026-05-06 12:38 25.82645 -80.35554 1911 ft 198 kts 119°
2026-05-06 12:38 25.82081 -80.34450 1183 ft 0 kts 119°
2026-05-06 12:39 25.81522 -80.33315 594 ft 180 kts 117°
2026-05-06 12:39 25.80931 -80.32132 594 ft 184 kts 121°
2026-05-06 12:39 25.80250 -80.30901 216 ft 185 kts 120°
2026-05-06 12:39 25.79644 -80.29669 20 ft 173 kts 123°
2026-05-06 12:40 25.79232 -80.28886 18 ft 45 kts 122°
2026-05-06 12:40 25.79144 -80.28687 19 ft 29 kts 110°
2026-05-06 12:40 25.79123 -80.28492 19 ft 19 kts 57°
2026-05-06 12:40 25.79209 -80.28392 20 ft 13 kts 27°
2026-05-06 12:41 25.79363 -80.28400 20 ft 36 kts 334°
2026-05-06 12:41 25.79368 -80.28408 20 ft 0 kts
2026-05-06 12:41 25.79371 -80.28408 20 ft 1 kts 359°
2026-05-06 12:41 25.79382 -80.28409 20 ft 2 kts 359°
2026-05-06 12:42 25.79392 -80.28409 20 ft 1 kts
2026-05-06 12:42 25.79400 -80.28408 20 ft 2 kts
2026-05-06 12:42 25.79406 -80.28408 20 ft 1 kts